| time (UTC) | temp F | wind direction | speed MPH | gust MPH | rain 1hr in | rain 24hr in | rain mn in | humidity % | barometer mb |
| 20260507185122 | 67 | 236 | 5.0 | 12.0 | 0.00 | 0.00 | 0.00 | 25 | 1016.6 |
| 20260507184122 | 66 | 227 | 6.0 | 12.0 | 0.00 | 0.00 | 0.00 | 26 | 1016.5 |
| 20260507183122 | 66 | 251 | 4.0 | 8.0 | 0.00 | 0.00 | 0.00 | 32 | 1016.6 |
| 20260507182122 | 66 | 233 | 6.0 | 11.0 | 0.00 | 0.00 | 0.00 | 28 | 1016.6 |
| 20260507181122 | 66 | 203 | 4.0 | 10.0 | 0.00 | 0.00 | 0.00 | 30 | 1016.7 |
| 20260507180122 | 63 | 215 | 5.0 | 13.0 | 0.00 | 0.00 | 0.00 | 32 | 1016.7 |
| 20260507175122 | 61 | 5 | 4.0 | 11.0 | 0.00 | 0.00 | 0.00 | 35 | 1016.9 |
| 20260507174122 | 59 | 125 | 0.0 | 2.0 | 0.00 | 0.00 | 0.00 | 47 | 1017.1 |
| 20260507173122 | 58 | 120 | 0.0 | 1.0 | 0.00 | 0.00 | 0.00 | 49 | 1017.2 |
| 20260507172122 | 58 | 164 | 1.0 | 3.0 | 0.00 | 0.00 | 0.00 | 45 | 1017.2 |
| 20260507171122 | 58 | 112 | 2.0 | 6.0 | 0.00 | 0.00 | 0.00 | 43 | 1017.3 |
| 20260507170143 | 58 | 126 | 2.0 | 7.0 | 0.00 | 0.00 | 0.00 | 43 | 1017.4 |
| 20260507165143 | 56 | 160 | 2.0 | 5.0 | 0.00 | 0.00 | 0.00 | 44 | 1017.5 |
| 20260507164123 | 54 | 184 | 1.0 | 4.0 | 0.00 | 0.00 | 0.00 | 49 | 1017.7 |
| 20260507163123 | 53 | 148 | 0.0 | 2.0 | 0.00 | 0.00 | 0.00 | 49 | 1017.9 |
| 20260507162122 | 52 | 160 | 1.0 | 4.0 | 0.00 | 0.00 | 0.00 | 49 | 1018.0 |
| 20260507161122 | 52 | 166 | 1.0 | 4.0 | 0.00 | 0.00 | 0.00 | 52 | 1018.2 |
| 20260507160122 | 51 | 162 | 0.0 | 1.0 | 0.00 | 0.00 | 0.00 | 53 | 1018.2 |
| 20260507155123 | 51 | 161 | 0.0 | 4.0 | 0.00 | 0.00 | 0.00 | 54 | 1018.4 |
| 20260507154122 | 51 | 0 | 0.0 | 0.0 | 0.00 | 0.00 | 0.00 | 56 | 1018.5 |
| 20260507153123 | 50 | 176 | 1.0 | 4.0 | 0.00 | 0.00 | 0.00 | 57 | 1018.5 |
| 20260507152123 | 48 | 247 | 0.0 | 2.0 | 0.00 | 0.00 | 0.00 | 61 | 1018.5 |
| 20260507151123 | 47 | 249 | 0.0 | 2.0 | 0.00 | 0.00 | 0.00 | 70 | 1018.5 |
| 20260507150122 | 45 | 281 | 0.0 | 1.0 | 0.00 | 0.00 | 0.00 | 70 | 1018.6 |
| 20260507145144 | 43 | 281 | 1.0 | 3.0 | 0.00 | 0.00 | 0.00 | 72 | 1018.7 |
| 20260507144143 | 42 | 271 | 2.0 | 6.0 | 0.00 | 0.00 | 0.00 | 75 | 1018.8 |
| 20260507143123 | 41 | 0 | 0.0 | 1.0 | 0.00 | 0.00 | 0.00 | 77 | 1018.9 |
| 20260507142123 | 40 | 269 | 0.0 | 2.0 | 0.00 | 0.00 | 0.00 | 78 | 1018.8 |
| 20260507141144 | 40 | 269 | 0.0 | 2.0 | 0.00 | 0.00 | 0.00 | 79 | 1018.7 |
| 20260507140122 | 39 | 269 | 0.0 | 2.0 | 0.00 | 0.00 | 0.00 | 79 | 1018.7 |
| 20260507135143 | 38 | 267 | 0.0 | 3.0 | 0.00 | 0.00 | 0.00 | 78 | 1018.7 |
| 20260507134122 | 39 | 0 | 0.0 | 0.0 | 0.00 | 0.00 | 0.00 | 78 | 1018.7 |
| 20260507133123 | 39 | 0 | 0.0 | 0.0 | 0.00 | 0.00 | 0.00 | 78 | 1018.6 |
| 20260507132122 | 38 | 263 | 0.0 | 3.0 | 0.00 | 0.00 | 0.00 | 78 | 1018.6 |
| 20260507131123 | 38 | 0 | 0.0 | 0.0 | 0.00 | 0.00 | 0.00 | 77 | 1018.5 |
| 20260507125122 | 38 | 0 | 0.0 | 0.0 | 0.00 | 0.00 | 0.00 | 76 | 1018.3 |
| 20260507124122 | 38 | 252 | 0.0 | 1.0 | 0.00 | 0.00 | 0.00 | 76 | 1018.4 |
| 20260507123122 | 38 | 0 | 0.0 | 0.0 | 0.00 | 0.00 | 0.00 | 76 | 1018.3 |
| 20260507122122 | 38 | 0 | 0.0 | 0.0 | 0.00 | 0.00 | 0.00 | 76 | 1018.4 |
| 20260507121122 | 38 | 0 | 0.0 | 0.0 | 0.00 | 0.00 | 0.00 | 75 | 1018.4 |
| 20260507120143 | 38 | 262 | 0.0 | 3.0 | 0.00 | 0.00 | 0.00 | 74 | 1018.4 |
| 20260507115122 | 38 | 0 | 0.0 | 0.0 | 0.00 | 0.00 | 0.00 | 74 | 1018.7 |
| 20260507114122 | 38 | 333 | 0.0 | 2.0 | 0.00 | 0.00 | 0.00 | 73 | 1018.6 |
| 20260507113122 | 38 | 0 | 0.0 | 1.0 | 0.00 | 0.00 | 0.00 | 73 | 1018.6 |
| 20260507112143 | 38 | 0 | 0.0 | 0.0 | 0.00 | 0.00 | 0.00 | 73 | 1018.3 |
| 20260507111122 | 38 | 333 | 0.0 | 2.0 | 0.00 | 0.00 | 0.00 | 73 | 1018.3 |
| 20260507110122 | 37 | 327 | 1.0 | 3.0 | 0.00 | 0.00 | 0.00 | 74 | 1018.3 |
| 20260507105122 | 37 | 311 | 2.0 | 4.0 | 0.00 | 0.00 | 0.00 | 74 | 1018.5 |
| 20260507104122 | 37 | 0 | 0.0 | 0.0 | 0.00 | 0.00 | 0.00 | 73 | 1018.6 |
| 20260507103122 | 37 | 0 | 0.0 | 0.0 | 0.00 | 0.00 | 0.00 | 73 | 1018.5 |
| 20260507102143 | 37 | 0 | 0.0 | 0.0 | 0.00 | 0.00 | 0.00 | 73 | 1018.5 |
| 20260507101122 | 38 | 288 | 0.0 | 2.0 | 0.00 | 0.00 | 0.00 | 72 | 1018.6 |
| 20260507100122 | 38 | 288 | 0.0 | 1.0 | 0.00 | 0.00 | 0.00 | 72 | 1018.7 |
| 20260507095122 | 38 | 287 | 0.0 | 1.0 | 0.00 | 0.00 | 0.00 | 72 | 1018.8 |
| 20260507094122 | 39 | 0 | 0.0 | 0.0 | 0.00 | 0.00 | 0.00 | 72 | 1018.8 |
| 20260507093122 | 38 | 0 | 0.0 | 1.0 | 0.00 | 0.00 | 0.00 | 72 | 1018.8 |
| 20260507092122 | 38 | 0 | 0.0 | 0.0 | 0.00 | 0.00 | 0.00 | 71 | 1018.9 |
| 20260507091122 | 39 | 281 | 1.0 | 3.0 | 0.00 | 0.00 | 0.00 | 70 | 1018.9 |
| 20260507090122 | 39 | 0 | 0.0 | 1.0 | 0.00 | 0.00 | 0.00 | 70 | 1019.0 |
| 20260507085122 | 39 | 0 | 0.0 | 0.0 | 0.00 | 0.01 | 0.00 | 70 | 1019.1 |
| 20260507084122 | 40 | 275 | 0.0 | 2.0 | 0.00 | 0.01 | 0.00 | 70 | 1019.2 |
| 20260507083122 | 40 | 0 | 0.0 | 0.0 | 0.00 | 0.01 | 0.00 | 70 | 1019.2 |
| 20260507082122 | 40 | 0 | 0.0 | 0.0 | 0.00 | 0.01 | 0.00 | 70 | 1019.4 |
| 20260507081122 | 40 | 271 | 0.0 | 2.0 | 0.00 | 0.01 | 0.00 | 69 | 1019.4 |
| 20260507080122 | 40 | 269 | 0.0 | 2.0 | 0.00 | 0.01 | 0.00 | 69 | 1019.3 |
| 20260507075122 | 40 | 0 | 0.0 | 1.0 | 0.00 | 0.01 | 0.00 | 68 | 1019.5 |
| 20260507074122 | 40 | 269 | 0.0 | 3.0 | 0.00 | 0.01 | 0.00 | 68 | 1019.4 |
| 20260507073122 | 40 | 0 | 0.0 | 0.0 | 0.00 | 0.01 | 0.00 | 68 | 1019.4 |
| 20260507072122 | 40 | 267 | 0.0 | 2.0 | 0.00 | 0.01 | 0.00 | 67 | 1019.5 |
| 20260507071122 | 41 | 267 | 0.0 | 2.0 | 0.00 | 0.01 | 0.00 | 66 | 1019.6 |
| 20260507070122 | 41 | 243 | 1.0 | 3.0 | 0.00 | 0.01 | 0.00 | 65 | 1019.7 |
| 20260507065122 | 41 | 347 | 0.0 | 2.0 | 0.00 | 0.01 | 0.00 | 64 | 1019.5 |
| 20260507064122 | 42 | 338 | 0.0 | 2.0 | 0.00 | 0.01 | 0.00 | 63 | 1019.6 |
| 20260507063122 | 43 | 0 | 0.0 | 0.0 | 0.00 | 0.01 | 0.00 | 62 | 1019.7 |
| 20260507062122 | 43 | 0 | 0.0 | 0.0 | 0.00 | 0.01 | 0.00 | 60 | 1019.6 |
| 20260507061122 | 43 | 336 | 1.0 | 3.0 | 0.00 | 0.01 | 0.00 | 60 | 1019.6 |
| 20260507055143 | 44 | 0 | 0.0 | 0.0 | 0.00 | 0.01 | 0.01 | 59 | 1019.7 |
| 20260507054122 | 44 | 0 | 0.0 | 0.0 | 0.00 | 0.01 | 0.01 | 58 | 1019.6 |
| 20260507053122 | 44 | 0 | 0.0 | 0.0 | 0.00 | 0.01 | 0.01 | 57 | 1019.6 |
| 20260507052122 | 45 | 0 | 0.0 | 0.0 | 0.00 | 0.01 | 0.01 | 56 | 1019.6 |
| 20260507051122 | 45 | 0 | 0.0 | 0.0 | 0.00 | 0.01 | 0.01 | 55 | 1019.7 |
| 20260507050122 | 46 | 0 | 0.0 | 0.0 | 0.00 | 0.01 | 0.01 | 54 | 1019.5 |
| 20260507045123 | 47 | 0 | 0.0 | 0.0 | 0.00 | 0.01 | 0.01 | 54 | 1019.5 |
| 20260507044143 | 47 | 321 | 1.0 | 4.0 | 0.00 | 0.01 | 0.01 | 49 | 1019.5 |
| 20260507043122 | 48 | 307 | 0.0 | 2.0 | 0.00 | 0.01 | 0.01 | 49 | 1019.4 |
| 20260507042122 | 48 | 307 | 1.0 | 3.0 | 0.00 | 0.01 | 0.01 | 48 | 1019.5 |
| 20260507041122 | 50 | 287 | 1.0 | 4.0 | 0.00 | 0.01 | 0.01 | 48 | 1019.6 |
| 20260507040122 | 51 | 0 | 0.0 | 0.0 | 0.00 | 0.01 | 0.01 | 45 | 1019.4 |
| 20260507035212 | 51 | 0 | 0.0 | 0.0 | 0.00 | 0.01 | 0.01 | 44 | 1019.3 |
| 20260507034122 | 51 | 29 | 2.0 | 4.0 | 0.00 | 0.01 | 0.01 | 42 | 1019.0 |
| 20260507033143 | 51 | 7 | 0.0 | 3.0 | 0.00 | 0.01 | 0.01 | 41 | 1018.8 |
| 20260507032143 | 52 | 309 | 0.0 | 2.0 | 0.00 | 0.01 | 0.01 | 40 | 1018.9 |
| 20260507031122 | 52 | 306 | 0.0 | 1.0 | 0.00 | 0.01 | 0.01 | 41 | 1018.8 |
| 20260507030143 | 52 | 302 | 0.0 | 3.0 | 0.00 | 0.01 | 0.01 | 42 | 1018.8 |
| 20260507025122 | 53 | 274 | 1.0 | 3.0 | 0.00 | 0.01 | 0.01 | 41 | 1018.7 |
| 20260507024122 | 53 | 12 | 2.0 | 5.0 | 0.00 | 0.01 | 0.01 | 39 | 1018.4 |
| 20260507023122 | 54 | 27 | 3.0 | 5.0 | 0.00 | 0.01 | 0.01 | 38 | 1018.0 |
| 20260507022122 | 55 | 3 | 2.0 | 5.0 | 0.00 | 0.01 | 0.01 | 37 | 1018.2 |
| 20260507021122 | 55 | 36 | 1.0 | 4.0 | 0.00 | 0.01 | 0.01 | 37 | 1018.2 |
| 20260507020143 | 56 | 202 | 0.0 | 2.0 | 0.00 | 0.01 | 0.01 | 35 | 1018.3 |
| 20260507015122 | 57 | 254 | 2.0 | 8.0 | 0.00 | 0.01 | 0.01 | 33 | 1018.3 |
| 20260507014122 | 58 | 239 | 2.0 | 7.0 | 0.00 | 0.01 | 0.01 | 33 | 1018.2 |
| 20260507013122 | 58 | 225 | 2.0 | 5.0 | 0.00 | 0.01 | 0.01 | 36 | 1018.2 |
| 20260507012122 | 58 | 224 | 2.0 | 6.0 | 0.00 | 0.01 | 0.01 | 32 | 1018.1 |
| 20260507011144 | 59 | 260 | 3.0 | 9.0 | 0.00 | 0.01 | 0.01 | 31 | 1018.0 |
| 20260507010122 | 59 | 243 | 4.0 | 8.0 | 0.00 | 0.01 | 0.01 | 30 | 1018.3 |
| 20260507005122 | 59 | 238 | 3.0 | 8.0 | 0.00 | 0.01 | 0.01 | 30 | 1018.2 |
| 20260507004122 | 59 | 214 | 3.0 | 9.0 | 0.00 | 0.01 | 0.01 | 32 | 1018.1 |
| 20260507003122 | 59 | 221 | 4.0 | 10.0 | 0.00 | 0.01 | 0.01 | 31 | 1018.0 |
| 20260507002143 | 59 | 217 | 5.0 | 11.0 | 0.00 | 0.01 | 0.01 | 29 | 1018.1 |
| 20260507001122 | 59 | 218 | 5.0 | 12.0 | 0.00 | 0.01 | 0.01 | 30 | 1018.0 |
| 20260507000122 | 60 | 220 | 5.0 | 9.0 | 0.00 | 0.01 | 0.01 | 30 | 1018.1 |
| 20260506235123 | 60 | 219 | 4.0 | 11.0 | 0.00 | 0.01 | 0.01 | 30 | 1017.9 |
| 20260506234122 | 60 | 223 | 3.0 | 6.0 | 0.00 | 0.01 | 0.01 | 31 | 1018.0 |
| 20260506233122 | 60 | 204 | 3.0 | 6.0 | 0.00 | 0.01 | 0.01 | 30 | 1017.8 |
| 20260506232122 | 60 | 210 | 4.0 | 11.0 | 0.00 | 0.01 | 0.01 | 32 | 1017.9 |
| 20260506231122 | 60 | 219 | 3.0 | 8.0 | 0.00 | 0.01 | 0.01 | 34 | 1017.9 |
| 20260506230122 | 61 | 225 | 4.0 | 9.0 | 0.00 | 0.01 | 0.01 | 30 | 1017.9 |
| 20260506225143 | 61 | 208 | 2.0 | 7.0 | 0.00 | 0.01 | 0.01 | 28 | 1018.0 |
| 20260506224122 | 61 | 217 | 2.0 | 6.0 | 0.00 | 0.01 | 0.01 | 29 | 1018.1 |
| 20260506223122 | 61 | 211 | 3.0 | 7.0 | 0.00 | 0.01 | 0.01 | 30 | 1018.2 |
| 20260506222122 | 61 | 212 | 3.0 | 8.0 | 0.00 | 0.01 | 0.01 | 28 | 1018.2 |
| 20260506221122 | 62 | 240 | 3.0 | 8.0 | 0.00 | 0.01 | 0.01 | 28 | 1018.2 |
| 20260506220123 | 62 | 274 | 2.0 | 8.0 | 0.00 | 0.01 | 0.01 | 27 | 1018.3 |
| 20260506215143 | 61 | 322 | 3.0 | 14.0 | 0.00 | 0.01 | 0.01 | 29 | 1018.5 |
| 20260506214122 | 61 | 353 | 4.0 | 10.0 | 0.00 | 0.01 | 0.01 | 28 | 1018.6 |
| 20260506213122 | 60 | 351 | 5.0 | 13.0 | 0.00 | 0.01 | 0.01 | 30 | 1018.7 |
| 20260506212122 | 60 | 347 | 4.0 | 15.0 | 0.00 | 0.01 | 0.01 | 28 | 1018.8 |
| 20260506211122 | 60 | 322 | 4.0 | 10.0 | 0.00 | 0.01 | 0.01 | 31 | 1018.9 |
| 20260506210122 | 60 | 286 | 3.0 | 11.0 | 0.00 | 0.01 | 0.01 | 31 | 1019.0 |
| 20260506205122 | 60 | 317 | 4.0 | 13.0 | 0.00 | 0.01 | 0.01 | 30 | 1019.0 |
| 20260506204122 | 59 | 338 | 7.0 | 17.0 | 0.00 | 0.01 | 0.01 | 30 | 1019.0 |
| 20260506203143 | 58 | 345 | 7.0 | 18.0 | 0.00 | 0.01 | 0.01 | 30 | 1019.0 |
| 20260506202122 | 58 | 326 | 6.0 | 15.0 | 0.00 | 0.01 | 0.01 | 33 | 1019.0 |
| 20260506201123 | 59 | 300 | 3.0 | 9.0 | 0.00 | 0.01 | 0.01 | 31 | 1019.1 |
| 20260506200122 | 58 | 313 | 5.0 | 20.0 | 0.00 | 0.01 | 0.01 | 30 | 1019.2 |
| 20260506195122 | 58 | 343 | 6.0 | 16.0 | 0.00 | 0.10 | 0.01 | 32 | 1019.2 |
| 20260506194122 | 58 | 305 | 2.0 | 10.0 | 0.00 | 0.10 | 0.01 | 38 | 1019.2 |
| 20260506193122 | 57 | 319 | 4.0 | 14.0 | 0.00 | 0.10 | 0.01 | 32 | 1019.2 |
| 20260506192122 | 57 | 338 | 4.0 | 13.0 | 0.00 | 0.10 | 0.01 | 35 | 1019.2 |
| 20260506191122 | 57 | 89 | 2.0 | 6.0 | 0.00 | 0.10 | 0.01 | 35 | 1019.3 |
| 20260506190122 | 57 | 187 | 2.0 | 5.0 | 0.00 | 0.10 | 0.01 | 43 | 1019.4 |